Regional Weather Roundup
Issued by NWS

Home | Current Version | Previous Version | Text Only | Print | Product List | Glossary Off
Versions: 1 2 3 4 5 6 7 8 9 10 11 12 13 14 15 16 17 18 19 20 21 22 23 24 25 26 27 28 29 30 31 32 33 34 35 36 37 38 39 40 41 42 43 44 45 46 47 48 49 50

901
ASUS43 KLSX 250459
RWRMO

WEATHER SUMMARY FOR MISSOURI
NATIONAL WEATHER SERVICE SPRINGFIELD MO
1200 AM CDT TUE JUL 25 2017

NOTE: "FAIR" INDICATES FEW OR NO CLOUDS BELOW 12,000 FEET WITH NO
       SIGNIFICANT WEATHER AND/OR OBSTRUCTIONS TO VISIBILITY.
       CURRENT SKY AND/OR WEATHER CONDITIONS ARE NOT AVAILABLE FOR
       CHILLICOTHE AND FARMINGTON.

MOZ001>031-035>038-043-044-053-054-250600-
...NORTHERN AND WESTERN MISSOURI...

CITY           SKY/WX    TMP DP  RH WIND       PRES   REMARKS
KANSAS CTY INT CLEAR     75  68  78 SE7       30.03R
KANSAS C DTWN  CLEAR     78  69  73 E6        30.02R
LEE`S SUMMIT   CLEAR     73  69  87 E6        30.05R
ST JOSEPH      CLEAR     75  69  81 SE6       30.03R
CHILLICOTHE      N/A     68  67  96 CALM      30.06R
KIRKSVILLE     CLEAR     69  66  90 E7        30.08R

$$
MOZ066>068-077>081-088>096-101>105-250600-
...SOUTHWEST MISSOURI...

CITY           SKY/WX    TMP DP  RH WIND       PRES   REMARKS
SPRINGFIELD    CLEAR     76  74  93 CALM      30.03R
JOPLIN         CLEAR     79  75  87 CALM      30.02R

$$
MOZ032>034-039>042-045>050-055>058-069>072-250600-
...CENTRAL MISSOURI...

CITY           SKY/WX    TMP DP  RH WIND       PRES   REMARKS
COLUMBIA       CLEAR     72  66  81 NE7       30.05R
JEFFERSON CITY CLEAR     74  68  81 S5        30.03R
ROLLA          CLEAR     73  66  78 NE8       30.04R
SEDALIA        CLEAR     73  69  87 E5        30.05R
WARRENSBURG    CLEAR     70  66  88 NE3       30.04R
OSAGE BEACH    CLEAR     73  66  78 NE3       30.04R

$$
MOZ051-052-059>065-250600-
...EAST CENTRAL MISSOURI...

CITY           SKY/WX    TMP DP  RH WIND       PRES   REMARKS
ST LOUIS INTL  CLEAR     78  67  68 E10       30.05R
SPIRIT OF STL  CLEAR     75  70  84 E7        30.03R
ST CHARLES     CLEAR     73  69  87 NE7       30.04R

$$
MOZ072>076-082>087-097>100-106>115-250600-
...SOUTH CENTRAL AND SOUTHEAST MISSOURI...

CITY           SKY/WX    TMP DP  RH WIND       PRES   REMARKS
CAPE GIRARDEAU CLOUDY    75  70  84 NE5       29.99R
FARMINGTON     MOCLDY    77  69  76 E5        30.05R
POPLAR BLUFF   CLOUDY    81  77  88 S3        29.98R
WEST PLAINS    PTCLDY    77  74  90 CALM      30.04R

$$




USA.gov is the U.S. government's official web portal to all federal, state and local government web resources and services.